CW1500 Weather Reports


time (UTC)temp
F
wind
direction
speed
knots
gust
knots
rain 1hr
in
rain 24hr
in
rain mn
in
humidity
%
barometer
mb
20260509200226 72 154 0.0 3.5 0.00 0.00 0.00 49 1009.9
20260509193231 71 163 1.7 4.3 0.00 0.00 0.00 46 1010.3
20260509190229 71 169 2.6 7.8 0.00 0.00 0.00 47 1010.4
20260509183230 71 73 1.7 6.1 0.00 0.00 0.00 48 1010.8
20260509180229 68 123 3.5 7.8 0.00 0.00 0.00 49 1011.3
20260509173215 68 61 2.6 7.8 0.00 0.00 0.00 49 1011.6
20260509170220 65 51 1.7 7.0 0.00 0.00 0.00 51 1012.2
20260509163219 67 20 1.7 7.8 0.00 0.00 0.00 50 1012.4
20260509160224 67 30 2.6 9.6 0.00 0.00 0.00 50 1011.8
20260509153228 67 49 2.6 7.0 0.00 0.00 0.00 47 1012.2
20260509150228 66 57 0.9 4.3 0.00 0.00 0.00 46 1012.4
20260509143229 66 36 4.3 7.8 0.00 0.00 0.00 47 1012.5
20260509140213 64 242 0.9 3.5 0.00 0.00 0.00 48 1012.8
20260509133215 62 242 0.0 1.7 0.00 0.00 0.00 53 1012.6
20260509130231 60 242 0.0 0.0 0.00 0.00 0.00 56 1012.8
20260509123232 59 242 0.0 0.0 0.00 0.00 0.00 59 1012.7
20260509120215 58 242 0.0 0.0 0.00 0.00 0.00 56 1012.8
20260509113217 58 242 0.0 0.9 0.00 0.00 0.00 52 1012.7
20260509110219 58 242 0.9 3.5 0.00 0.00 0.00 50 1012.2
20260509103220 58 241 1.7 6.1 0.00 0.00 0.00 50 1012.1
20260509100222 58 241 1.7 4.3 0.00 0.00 0.00 50 1012.1
20260509093220 58 241 1.7 4.3 0.00 0.00 0.00 51 1012.0
20260509090222 58 242 0.9 4.3 0.00 0.00 0.00 50 1012.1
20260509083225 58 242 0.9 3.5 0.00 0.00 0.00 50 1012.3
20260509080241 59 241 2.6 5.2 0.00 0.00 0.00 48 1012.3
20260509073224 59 241 2.6 6.1 0.00 0.00 0.00 49 1012.5
20260509070222 59 241 2.6 4.3 0.00 0.00 0.00 48 1012.6
20260509063225 59 244 3.5 7.8 0.00 0.00 0.00 48 1013.0
20260509060244 59 230 2.6 5.2 0.00 0.00 0.00 49 1013.1
20260509053225 59 228 0.0 1.7 0.00 0.00 0.00 50 1013.1
20260509050229 60 228 0.0 5.2 0.00 0.00 0.00 49 1013.1
20260509043231 58 228 0.0 4.3 0.00 0.00 0.00 51 1013.2
20260509040250 57 228 0.0 0.0 0.00 0.00 0.00 53 1013.1
20260509033251 57 228 0.0 0.0 0.00 0.00 0.00 53 1013.2
20260509030231 58 228 0.0 0.0 0.00 0.00 0.00 52 1013.2
20260509023231 60 228 0.0 1.7 0.00 0.00 0.00 48 1013.5
20260509020228 61 228 0.0 0.9 0.00 0.00 0.00 45 1013.4
20260509013229 62 228 0.0 0.0 0.00 0.00 0.00 44 1013.3
20260509010221 65 228 0.0 0.0 0.00 0.00 0.00 39 1013.2
20260509003215 67 228 0.0 1.7 0.00 0.00 0.00 35 1013.0
20260509000233 69 228 0.9 4.3 0.00 0.00 0.00 32 1012.8
20260508233230 71 285 0.9 2.6 0.00 0.00 0.00 31 1012.6
20260508230230 71 285 0.0 1.7 0.00 0.00 0.00 29 1012.3
20260508223216 72 285 0.9 3.5 0.00 0.00 0.00 30 1012.4
20260508220215 72 294 0.0 7.8 0.00 0.00 0.00 30 1012.2
20260508213248 71 360 3.5 9.6 0.00 0.00 0.00 29 1012.5
20260508210226 70 259 1.7 9.6 0.00 0.00 0.00 31 1012.7
20260508203220 69 269 2.6 12.2 0.00 0.00 0.00 30 1013.0